Starlink 32107

operational
NORAD ID: 59694 Int'l Des: 2024-086 Owner: SPXS Country: US Constellation: starlink
LEOCIRCULAR

关于 Starlink 32107

正在加载描述...

实时位置

正在加载3D地球...

即将过境

高度历史

Altitude vs Time

uPlot chart will show altitude changes over time

两行轨道根数

1 59694U 24086N 26034.97945890 -.00000027 00000-0 85307-5 0 9997
2 59694 43.0025 250.5257 0001066 258.0237 102.0495 15.27580788 98958
Epoch: Feb 3, 2026 • Age: 10 hours

当前状态

高度 483.6 km
速度 7.63 km/s
星下点 -6.41°S, 154.21°E
发射日期 May 8, 2024
运行时间 1.7 years
类型 internet

技术详情

分类 Payload
质量 730.00 kg
干质量 700.00 kg
总质量 730.00 kg
长度 0.30 m
直径 4.10 m
跨度 29.00 m
形状 Box + pan
制造商 SPXS
平台类型 Starlink V2M
阶段状态 In Orbit
所有者/国家 SPXS/US

大型星座

Loading constellations...